Weather observations for the past three days for
Fort Worth Spinks Airport
| Date | Time (cdt) | Wind (kph) | Vis. (km) | Weather | Sky Cond. | Temperature (ºC) | Relative Humidity | Wind Chill (°C) | Heat Index (°C) | Pressure | Precipitation (cm) | ||||||
|---|---|---|---|---|---|---|---|---|---|---|---|---|---|---|---|---|---|
| Air | Dwpt | 6 hour | altimeter (cm) | sea level (mb) | 1 hr | 3 hr | 6 hr | ||||||||||
| Max. | Min. | ||||||||||||||||
| 10 | 04:15 | E 7 | 14.48 | Partly Cloudy | FEW070 SCT170 | 20.2 | 19.7 | 97% | 75.9 | 0.0 | |||||||
| 10 | 03:55 | NE 9 | 14.48 | A Few Clouds | FEW170 | 18.7 | 18.5 | 99% | 75.9 | 0.0 | |||||||
| 10 | 03:35 | NE 7 | 16.09 | Fair | CLR | 19.4 | 19.1 | 98% | 75.84 | 0.0 | |||||||
| 10 | 03:15 | N 6 | 16.09 | Fair | CLR | 19.8 | 19.1 | 96% | 75.79 | 0.0 | |||||||
| 10 | 02:55 | SE 6 | 16.09 | Fair | CLR | 20.1 | 19.2 | 95% | 75.79 | 0.0 | |||||||
| 10 | 02:35 | S 7 | 16.09 | Fair | CLR | 20.3 | 19.2 | 93% | 75.79 | 0.0 | |||||||
| 10 | 02:15 | Calm | 16.09 | A Few Clouds | FEW170 | 21.6 | 19.6 | 88% | 75.82 | 0.0 | |||||||
| 10 | 01:55 | NE 15 | 16.09 | Partly Cloudy | SCT170 | 20.9 | 19.7 | 93% | 75.84 | 0.0 | |||||||
| 10 | 01:35 | Calm | 16.09 | A Few Clouds | FEW180 | 22.1 | 19.4 | 85% | 75.77 | 0.0 | |||||||
| 10 | 01:15 | S 9 | 16.09 | Fair | CLR | 22.5 | 19.1 | 81% | 75.74 | 0.0 | |||||||
| 10 | 00:55 | S 13 | 16.09 | Fair | CLR | 23 | 18.4 | 30.4 | 21.5 | 75% | 75.72 | 0.0 | |||||
| 10 | 00:35 | S 13 | 16.09 | Fair | CLR | 23 | 18.2 | 74% | 75.69 | 0.0 | |||||||
| 10 | 00:15 | S 11 | 16.09 | Fair | CLR | 22.3 | 18.3 | 78% | 75.69 | 0.0 | |||||||
| 09 | 23:55 | SE 13 | 14.48 | Fair | CLR | 22.3 | 18.3 | 78% | 75.69 | 0.0 | |||||||
| 09 | 23:35 | S 17 | 14.48 | Fair | CLR | 22.5 | 18 | 76% | 75.72 | 0.0 | |||||||
| 09 | 23:15 | SE 11 | 16.09 | Fair | CLR | 22.1 | 17.4 | 75% | 75.72 | 0.0 | |||||||
| 09 | 22:55 | SE 9 | 16.09 | Fair | CLR | 21.8 | 17.4 | 76% | 75.72 | 0.0 | |||||||
| 09 | 22:35 | SE 11 | 16.09 | Fair | CLR | 22 | 17.5 | 76% | 75.72 | 0.0 | |||||||
| 09 | 22:15 | SE 11 | 16.09 | Fair | CLR | 21.9 | 17.9 | 78% | 75.72 | 0.0 | |||||||
| 09 | 21:55 | SE 7 | 16.09 | Fair | CLR | 22 | 18 | 78% | 75.72 | 0.0 | |||||||
| 09 | 21:35 | SE 9 | 16.09 | Fair | CLR | 23.1 | 17.6 | 71% | 75.72 | 0.0 | |||||||
| 09 | 21:15 | SE 11 | 16.09 | Fair | CLR | 23.1 | 17.6 | 71% | 75.67 | 0.0 | |||||||
| 09 | 20:55 | SE 9 | 16.09 | Fair | CLR | 24 | 18 | 69% | 25 | 75.64 | 0.0 | ||||||
| 09 | 20:35 | SE 9 | 16.09 | Fair | CLR | 24.5 | 18.2 | 68% | 25 | 75.64 | 0.0 | ||||||
| 09 | 20:15 | SE 7 | 14.48 | Fair | CLR | 25 | 18.9 | 69% | 26 | 75.64 | 0.0 | ||||||
| 09 | 19:55 | SE 7 | 14.48 | Fair | CLR | 26.8 | 19.6 | 65% | 28 | 75.62 | 0.0 | ||||||
| 09 | 18:50 | SE 6 | 16.09 | Fair | CLR | 31 | 17 | 43% | 31 | 75.62 | 0.0 | ||||||
| 09 | 17:50 | SE 9 | 16.09 | Fair | CLR | 32 | 16 | 38% | 32 | 75.62 | 0.0 | ||||||
| 09 | 16:50 | SE 9 | 16.09 | Fair | CLR | 32 | 16 | 38% | 32 | 75.62 | 0.0 | ||||||
| 09 | 15:50 | Calm | 16.09 | Fair | CLR | 32 | 16 | 38% | 32 | 75.67 | 0.0 | ||||||
| 09 | 14:50 | E 7 | 16.09 | Fair | CLR | 32 | 17 | 41% | 32 | 75.72 | 0.0 | ||||||
| 09 | 13:50 | E 4 | 16.09 | Fair | CLR | 31 | 17 | 43% | 31 | 75.74 | 0.0 | ||||||
| 09 | 12:50 | NW 9 | 16.09 | Fair | CLR | 30 | 18 | 49% | 31 | 75.79 | 0.0 | ||||||
| 09 | 11:55 | N 13 | 16.09 | Fair | CLR | 29 | 18 | 51% | 30 | 75.84 | 0.0 | ||||||
| 09 | 10:55 | NW 13 | 16.09 | Fair | CLR | 27 | 18 | 58% | 28 | 75.84 | 0.0 | ||||||
| 09 | 09:54 | N 13 | 16.09 | Fair | CLR | 26 | 18 | 61% | 27 | 75.84 | 0.0 | ||||||
| 09 | 08:47 | NW 13 | 16.09 | Fair | CLR | 22 | 18 | 78% | 75.84 | 0.0 | |||||||
| 09 | 07:51 | NW 9 | 16.09 | Fair | CLR | 22 | 17 | 73% | 75.82 | 0.0 | |||||||
| 09 | 06:47 | Calm | 16.09 | Fair | CLR | 17 | 15 | 88% | 75.79 | 0.0 | |||||||
| 09 | 06:35 | W 7 | 16.09 | Partly Cloudy | SCT190 | 19 | 15.7 | 81% | 75.79 | 0.0 | |||||||
| 09 | 06:15 | W 7 | 14.48 | Mostly Cloudy | BKN190 | 19.7 | 16.5 | 82% | 75.77 | 0.0 | |||||||
| 09 | 05:55 | NW 7 | 16.09 | Mostly Cloudy | SCT015 SCT021 BKN026 | 21.2 | 19.2 | 88% | 75.77 | 0.0 | |||||||
| 09 | 05:35 | NW 7 | 16.09 | Overcast | BKN014 OVC020 | 21.8 | 19.9 | 89% | 75.74 | 0.0 | |||||||
| 09 | 05:15 | NW 19 | 16.09 | Mostly Cloudy | BKN012 | 21.7 | 20.3 | 92% | 75.74 | 0.0 | |||||||
| 09 | 04:55 | S 19 | 16.09 | Fair | CLR | 21.3 | 20.4 | 95% | 75.57 | 0.0 | |||||||
| 09 | 04:35 | S 20 | 16.09 | Fair | CLR | 21.2 | 20.4 | 95% | 75.51 | 0.0 | |||||||
| 09 | 04:15 | S 20 | 16.09 | Fair | CLR | 20.9 | 20.2 | 96% | 75.57 | 0.0 | |||||||
| 09 | 03:55 | S 20 | 16.09 | Fair | CLR | 20.9 | 20.2 | 96% | 75.62 | 0.0 | |||||||
| 09 | 03:35 | S 19 | 16.09 | Fair | CLR | 20.7 | 20.1 | 96% | 75.62 | 0.0 | |||||||
| 09 | 03:15 | S 13 | 16.09 | Fair | CLR | 20.4 | 19.9 | 97% | 75.69 | 0.0 | |||||||
| 09 | 02:55 | S 13 | 16.09 | A Few Clouds | FEW017 | 20 | 19.7 | 98% | 75.79 | 0.0 | |||||||
| 09 | 02:35 | SW 9 | 16.09 | Partly Cloudy | SCT015 | 20.7 | 19.9 | 95% | 75.84 | 0.0 | |||||||
| 09 | 02:15 | NW 24 | 16.09 | Overcast | BKN016 OVC021 | 21 | 20.3 | 96% | 75.92 | 0.0 | |||||||
| 09 | 01:55 | W 7 | 16.09 | Overcast | OVC017 | 20.8 | 20.4 | 98% | 75.92 | 0.0 | |||||||
| 09 | 01:35 | NW 6 | 12.87 | Overcast | OVC017 | 20.3 | 20.3 | 100% | 75.9 | 0.0 | |||||||
| 09 | 01:15 | N 7 | 9.66 | Fog/Mist | BKN018 | 19.5 | 19.5 | 100% | 75.87 | 0.0 | |||||||
| 09 | 00:55 | N 13 | 4.83 | Fog/Mist | CLR | 18.1 | 18.1 | 23.3 | 18.1 | 100% | 75.87 | 0.0 | |||||
| 09 | 00:35 | Calm | 6.44 | Fog/Mist | CLR | 18.6 | 18.6 | 100% | 75.79 | 0.0 | |||||||
| 09 | 00:15 | S 6 | 14.48 | Fair | CLR | 19.2 | 19.2 | 100% | 75.82 | 0.0 | |||||||
| 08 | 23:55 | S 6 | 16.09 | Fair | CLR | 19.4 | 19.3 | 99% | 75.82 | 0.0 | |||||||
| 08 | 23:35 | E 6 | 16.09 | Fair | CLR | 20.2 | 19.8 | 98% | 75.82 | 0.0 | |||||||
| 08 | 23:15 | Calm | 16.09 | Fair | CLR | 21.1 | 19.9 | 93% | 75.82 | 0.0 | |||||||
| 08 | 22:55 | S 11 | 16.09 | A Few Clouds | FEW070 | 21.2 | 20.1 | 93% | 75.77 | 0.0 | |||||||
| 08 | 22:35 | S 13 | 16.09 | Partly Cloudy | SCT070 | 21.5 | 20.2 | 92% | 75.77 | 0.0 | |||||||
| 08 | 22:15 | S 13 | 16.09 | Fair | CLR | 21.5 | 20.2 | 92% | 75.74 | 0.0 | |||||||
| 08 | 21:55 | S 13 | 16.09 | A Few Clouds | FEW019 | 21.5 | 20.1 | 92% | 75.69 | 0.0 | |||||||
| 08 | 21:35 | S 11 | 12.87 | Mostly Cloudy | BKN020 | 21.6 | 20.2 | 92% | 75.72 | 0.0 | |||||||
| 08 | 21:15 | S 9 | 16.09 | Overcast | OVC020 | 21.9 | 20.5 | 92% | 75.72 | 0.0 | |||||||
| 08 | 20:55 | S 6 | 16.09 | Overcast | OVC021 | 22.1 | 20.5 | 91% | 75.69 | 0.0 | |||||||
| 08 | 20:35 | S 9 | 16.09 | Overcast | OVC021 | 22.3 | 20.4 | 89% | 75.69 | 0.0 | |||||||
| 08 | 20:15 | S 11 | 16.09 | Overcast | OVC020 | 22 | 20.5 | 91% | 75.67 | 0.0 | |||||||
| 08 | 19:55 | S 9 | 16.09 | Overcast | OVC020 | 22.8 | 20.3 | 86% | 75.64 | 0.0 | |||||||
| 08 | 18:47 | S 6 | 16.09 | Mostly Cloudy | BKN020 | 23 | 20 | 83% | 75.67 | 0.0 | |||||||
| 08 | 17:47 | S 15 | 16.09 | Mostly Cloudy | BKN020 | 23 | 20 | 83% | 75.67 | 0.0 | |||||||
| 08 | 16:47 | S 11 | 16.09 | Mostly Cloudy | BKN023 | 22 | 19 | 83% | 75.72 | 0.0 | |||||||
| 08 | 15:50 | Calm | 16.09 | Mostly Cloudy | BKN023 BKN100 | 20 | 18 | 88% | 75.79 | 0.0 | |||||||
| 08 | 14:47 | SW 11 | 16.09 | Thunderstorm in Vicinity | OVC023 | 21 | 16 | 73% | 75.9 | 0.0 | |||||||
| 08 | 13:48 | S 15 | 16.09 | Overcast | OVC024 | 21 | 16 | 73% | 75.9 | 0.0 | |||||||
| 08 | 12:47 | SE 13 | 16.09 | Overcast | OVC026 | 22 | 15 | 65% | 75.95 | 0.0 | |||||||
| 08 | 11:50 | SE 17 | 16.09 | Overcast | OVC025 | 22 | 15 | 65% | 76.02 | 0.0 | |||||||
| 08 | 10:50 | SE 13 | 16.09 | Overcast | OVC023 | 20 | 14 | 69% | 76.07 | 0.0 | |||||||
| 08 | 09:53 | SE 6 | 16.09 | Overcast | OVC020 | 18 | 14 | 78% | 76.12 | 0.0 | |||||||
| 08 | 08:50 | SE 7 | 16.09 | Mostly Cloudy | BKN020 | 18 | 14 | 78% | 76.12 | 0.0 | |||||||
| 08 | 07:50 | Calm | 16.09 | Fair | CLR | 15 | 15 | 100% | 76.15 | 0.0 | |||||||
| 08 | 06:35 | SE 6 | 16.09 | Mostly Cloudy | BKN080 | 12.8 | 12.6 | 99% | 76.12 | 0.0 | |||||||
| 08 | 06:15 | N 9 | 11.27 | Mostly Cloudy | SCT080 BKN130 | 13.2 | 12.8 | 97% | 76.15 | 0.0 | |||||||
| 08 | 05:55 | S 7 | 16.09 | Mostly Cloudy | BKN130 | 13.8 | 13.3 | 97% | 76.1 | 0.0 | |||||||
| 08 | 05:35 | S 6 | 16.09 | Mostly Cloudy | FEW085 BKN130 | 13.8 | 13.5 | 98% | 76.12 | 0.0 | |||||||
| 08 | 05:15 | S 7 | 16.09 | Mostly Cloudy | BKN090 | 13.9 | 13.6 | 98% | 76.1 | 0.0 | |||||||
| 08 | 04:55 | S 7 | 16.09 | A Few Clouds | FEW095 | 12.9 | 12.9 | 100% | 76.07 | 0.0 | |||||||
| 08 | 04:35 | S 7 | 16.09 | A Few Clouds | FEW085 | 12.7 | 12.7 | 100% | 76.1 | 0.0 | |||||||
| 08 | 04:15 | Calm | 16.09 | Mostly Cloudy | SCT085 BKN150 | 13 | 13 | 100% | 76.1 | 0.0 | |||||||
| 08 | 03:55 | Calm | 14.48 | A Few Clouds | FEW140 | 13.4 | 13.2 | 99% | 76.1 | 0.0 | |||||||
| 08 | 03:35 | Calm | 16.09 | Partly Cloudy | FEW090 SCT140 | 13.6 | 13.6 | 100% | 76.1 | 0.0 | |||||||
| 08 | 03:15 | SE 6 | 14.48 | Partly Cloudy | SCT080 SCT100 SCT130 | 13.8 | 13.7 | 99% | 76.12 | 0.0 | |||||||
| 08 | 02:55 | SE 6 | 16.09 | Overcast | OVC075 | 14.9 | 14.7 | 99% | 76.17 | 0.0 | |||||||
| 08 | 02:35 | Calm | 9.66 | Fog/Mist | OVC075 | 15.2 | 14.5 | 96% | 76.2 | 0.0 | |||||||
| 08 | 02:15 | Calm | 11.27 | Overcast | BKN075 OVC090 | 14.6 | 14 | 96% | 76.17 | 0.0 | |||||||
| 08 | 01:55 | Calm | 16.09 | Overcast | BKN075 OVC095 | 14 | 13.9 | 99% | 76.17 | 0.0 | |||||||
| 08 | 01:35 | Calm | 16.09 | Overcast | OVC075 | 14 | 14 | 100% | 76.17 | 0.0 | |||||||
| 08 | 01:15 | Calm | 16.09 | Overcast | OVC075 | 13.9 | 13.9 | 100% | 76.2 | 0.0 | |||||||
| 08 | 00:55 | Calm | 14.48 | Partly Cloudy | FEW075 SCT130 | 12.8 | 12.8 | 18.5 | 12.7 | 100% | 76.2 | 0.0 | |||||
| 08 | 00:35 | S 6 | 14.48 | Fair | CLR | 12.9 | 12.9 | 100% | 76.23 | 0.0 | |||||||
| 08 | 00:15 | Calm | 14.48 | Fair | CLR | 13.2 | 13 | 99% | 76.23 | 0.0 | |||||||
| 07 | 23:55 | Calm | 14.48 | A Few Clouds | FEW120 | 13.4 | 13 | 97% | 76.23 | 0.0 | |||||||
| 07 | 23:35 | Calm | 14.48 | A Few Clouds | FEW120 | 14.4 | 13 | 91% | 76.2 | 0.0 | |||||||
| 07 | 23:15 | Calm | 11.27 | Partly Cloudy | SCT120 | 14.8 | 13.7 | 93% | 76.2 | 0.0 | |||||||
| 07 | 22:55 | Calm | 16.09 | Partly Cloudy | SCT130 | 14.3 | 13.4 | 94% | 76.2 | 0.0 | |||||||
| 07 | 22:35 | Calm | 16.09 | Mostly Cloudy | BKN120 | 15.1 | 13.2 | 89% | 76.2 | 0.0 | |||||||
| 07 | 22:15 | Calm | 16.09 | Partly Cloudy | SCT120 | 15.2 | 12.8 | 86% | 76.2 | 0.0 | |||||||
| 07 | 21:55 | SE 6 | 16.09 | A Few Clouds | FEW130 | 15.1 | 13.2 | 89% | 76.15 | 0.0 | |||||||
| 07 | 21:35 | SE 6 | 16.09 | Partly Cloudy | SCT130 | 16.2 | 13 | 81% | 76.15 | 0.0 | |||||||
| 07 | 21:15 | SE 7 | 16.09 | Mostly Cloudy | SCT130 BKN160 | 16 | 13.4 | 85% | 76.15 | 0.0 | |||||||
| 07 | 20:55 | SE 6 | 16.09 | Partly Cloudy | FEW130 SCT160 | 16.1 | 13.7 | 86% | 76.15 | 0.0 | |||||||
| 07 | 20:35 | SE 6 | 16.09 | Mostly Cloudy | SCT130 BKN160 | 16.4 | 13.9 | 85% | 76.15 | 0.0 | |||||||
| 07 | 20:15 | Calm | 14.48 | Mostly Cloudy | BKN150 | 17 | 13.6 | 81% | 76.15 | 0.0 | |||||||
| 07 | 19:55 | S 6 | 16.09 | Overcast | BKN140 OVC290 | 17.6 | 13.2 | 76% | 76.15 | 0.0 | |||||||
| 07 | 18:52 | S 9 | 16.09 | Fair | CLR | 19 | 12 | 64% | 76.17 | 0.0 | |||||||
| 07 | 17:47 | S 9 | 16.09 | Fair | CLR | 20 | 13 | 64% | 76.17 | 0.0 | |||||||
| 07 | 16:46 | S 7 | 16.09 | Fair | CLR | 21 | 11 | 53% | 76.2 | 0.0 | |||||||
| 07 | 15:54 | S 9 | 16.09 | Fair | CLR | 21 | 11 | 53% | 76.28 | 0.0 | |||||||
| 07 | 14:55 | NE 9 | 16.09 | Fair | CLR | 21 | 10 | 50% | 76.25 | 0.0 | |||||||
| 07 | 13:55 | E 7 | 16.09 | Fair | CLR | 21 | 9 | 46% | 76.35 | 0.0 | |||||||
| 07 | 12:47 | NE 15 | 16.09 | Fair | CLR | 20 | 11 | 56% | 76.38 | 0.0 | |||||||
| 07 | 10:47 | NE 13 | 16.09 | Fair | CLR | 17 | 12 | 73% | 76.48 | 0.0 | |||||||
| 07 | 09:55 | NE 9 | 16.09 | Fair | CLR | 17 | 12 | 73% | 76.53 | 0.0 | |||||||
| 07 | 08:47 | N 7 | 16.09 | Fair | CLR | 14 | 12 | 88% | 76.56 | 0.0 | |||||||
| 07 | 07:51 | Calm | 16.09 | Fair | CLR | 13 | 12 | 94% | 76.56 | 0.0 | |||||||
| 07 | 06:47 | Calm | 16.09 | Fair | CLR | 11 | 10 | 94% | 76.56 | 0.0 | |||||||
| 07 | 06:35 | NW 7 | 16.09 | A Few Clouds | FEW290 | 11.1 | 10.4 | 96% | 76.53 | 0.0 | |||||||
| 07 | 06:15 | NW 7 | 16.09 | Mostly Cloudy | BKN290 | 11.3 | 10.7 | 96% | 76.5 | 0.0 | |||||||
| 07 | 05:55 | NW 7 | 16.09 | Partly Cloudy | SCT290 | 10.9 | 10.5 | 97% | 76.5 | 0.0 | |||||||
| 07 | 05:35 | N 7 | 16.09 | Fair | CLR | 10.3 | 10 | 98% | 76.45 | 0.0 | |||||||
| 07 | 05:15 | N 7 | 16.09 | Fair | CLR | 10.6 | 10.3 | 98% | 76.43 | 0.0 | |||||||
| 07 | 04:55 | N 11 | 16.09 | Fair | CLR | 10.4 | 10 | 97% | 76.4 | 0.0 | |||||||
| 07 | 04:35 | N 7 | 16.09 | Fair | CLR | 10.8 | 10.3 | 97% | 76.4 | 0.0 | |||||||
| Date | Time (cdt) | Wind (kph) | Vis. (km) | Weather | Sky Cond. | Air | Dwpt | Max. | Min. | Relative Humidity | Wind Chill (°C) | Heat Index (°C) | altimeter (cm) | sea level (mb) | 1 hr | 3 hr | 6 hr |
| 6 hour | |||||||||||||||||
| Temperature (ºC) | Pressure | Precipitation (cm) | |||||||||||||||